Year,Month,Day,Hour,Minute,Value (Times are PST for temperature in C)
2009,07,30,00,00,22.20
2009,07,30,00,01,22.10
2009,07,30,00,02,22.00
2009,07,30,00,03,22.00
2009,07,30,00,04,21.90
2009,07,30,00,05,21.90
2009,07,30,00,06,21.80
2009,07,30,00,07,21.80
2009,07,30,00,08,21.70
2009,07,30,00,09,21.70
2009,07,30,00,10,21.70
2009,07,30,00,11,21.60
2009,07,30,00,12,21.60
2009,07,30,00,13,21.60
2009,07,30,00,14,21.60
2009,07,30,00,15,21.50
2009,07,30,00,16,21.40
2009,07,30,00,17,21.30
2009,07,30,00,18,21.30
2009,07,30,00,19,21.10
2009,07,30,00,20,21.00
2009,07,30,00,21,20.90
2009,07,30,00,22,20.70
2009,07,30,00,23,20.60
2009,07,30,00,24,20.50
2009,07,30,00,25,20.50
2009,07,30,00,26,20.40
2009,07,30,00,27,20.30
2009,07,30,00,28,20.20
2009,07,30,00,29,20.20
2009,07,30,00,30,20.20
2009,07,30,00,31,20.20
2009,07,30,00,32,20.20
2009,07,30,00,33,20.20
2009,07,30,00,34,20.20
2009,07,30,00,35,20.20
2009,07,30,00,36,20.20
2009,07,30,00,37,20.20
2009,07,30,00,38,20.30
2009,07,30,00,39,20.30
2009,07,30,00,40,20.30
2009,07,30,00,41,20.30
2009,07,30,00,42,20.30
2009,07,30,00,43,20.30
2009,07,30,00,44,20.30
2009,07,30,00,45,20.20
2009,07,30,00,46,20.20
2009,07,30,00,47,20.20
2009,07,30,00,48,20.20
2009,07,30,00,49,20.20
2009,07,30,00,50,20.20
2009,07,30,00,51,20.20
2009,07,30,00,52,20.20
2009,07,30,00,53,20.20
2009,07,30,00,54,20.20
2009,07,30,00,55,20.20
2009,07,30,00,56,20.20
2009,07,30,00,57,20.20
2009,07,30,00,58,20.20
2009,07,30,00,59,20.20
2009,07,30,01,00,20.20
2009,07,30,01,01,20.20
2009,07,30,01,02,20.20
2009,07,30,01,03,20.20
2009,07,30,01,04,20.20
2009,07,30,01,05,20.20
2009,07,30,01,06,20.30
2009,07,30,01,07,20.30
2009,07,30,01,08,20.30
2009,07,30,01,09,20.30
2009,07,30,01,10,20.30
2009,07,30,01,11,20.30
2009,07,30,01,12,20.30
2009,07,30,01,13,20.30
2009,07,30,01,14,20.40
2009,07,30,01,15,20.40
2009,07,30,01,16,20.40
2009,07,30,01,17,20.40
2009,07,30,01,18,20.50
2009,07,30,01,19,20.50
2009,07,30,01,20,20.60
2009,07,30,01,21,20.70
2009,07,30,01,22,20.80
2009,07,30,01,23,20.80
2009,07,30,01,24,20.90
2009,07,30,01,25,21.00
2009,07,30,01,26,21.00
2009,07,30,01,27,21.00
2009,07,30,01,28,21.00
2009,07,30,01,29,21.10
2009,07,30,01,30,21.10
2009,07,30,01,31,21.10
2009,07,30,01,32,21.10
2009,07,30,01,33,21.10
2009,07,30,01,34,21.20
2009,07,30,01,35,21.20
2009,07,30,01,36,21.20
2009,07,30,01,37,21.30
2009,07,30,01,38,21.30
2009,07,30,01,39,21.30
2009,07,30,01,40,21.30
2009,07,30,01,41,21.30
2009,07,30,01,42,21.30
2009,07,30,01,43,21.30
2009,07,30,01,44,21.30
2009,07,30,01,45,21.40
2009,07,30,01,46,21.40
2009,07,30,01,47,21.40
2009,07,30,01,48,21.50
2009,07,30,01,49,21.60
2009,07,30,01,50,21.60
2009,07,30,01,51,21.60
2009,07,30,01,52,21.60
2009,07,30,01,53,21.50
2009,07,30,01,54,21.40
2009,07,30,01,55,21.40
2009,07,30,01,56,21.30
2009,07,30,01,57,21.30
2009,07,30,01,58,21.30
2009,07,30,01,59,21.30
2009,07,30,02,00,21.30
2009,07,30,02,01,21.30
2009,07,30,02,02,21.30
2009,07,30,02,03,21.30
2009,07,30,02,04,21.30
2009,07,30,02,05,21.30
2009,07,30,02,06,21.30
2009,07,30,02,07,21.30
2009,07,30,02,08,21.30
2009,07,30,02,09,21.30
2009,07,30,02,10,21.30
2009,07,30,02,11,21.20
2009,07,30,02,12,21.20
2009,07,30,02,13,21.10
2009,07,30,02,14,21.00
2009,07,30,02,15,20.80
2009,07,30,02,16,20.60
2009,07,30,02,17,20.50
2009,07,30,02,18,20.50
2009,07,30,02,19,20.40
2009,07,30,02,20,20.30
2009,07,30,02,21,20.20
2009,07,30,02,22,20.20
2009,07,30,02,23,20.10
2009,07,30,02,24,20.00
2009,07,30,02,25,19.90
2009,07,30,02,26,19.90
2009,07,30,02,27,19.80
2009,07,30,02,28,19.70
2009,07,30,02,29,19.60
2009,07,30,02,30,19.60
2009,07,30,02,31,19.60
2009,07,30,02,32,19.60
2009,07,30,02,33,19.50
2009,07,30,02,34,19.50
2009,07,30,02,35,19.50
2009,07,30,02,36,19.50
2009,07,30,02,37,19.60
2009,07,30,02,38,19.60
2009,07,30,02,39,19.60
2009,07,30,02,40,19.60
2009,07,30,02,41,19.60
2009,07,30,02,42,19.60
2009,07,30,02,43,19.70
2009,07,30,02,44,19.70
2009,07,30,02,45,19.70
2009,07,30,02,46,19.80
2009,07,30,02,47,19.80
2009,07,30,02,48,19.80
2009,07,30,02,49,19.80
2009,07,30,02,50,19.80
2009,07,30,02,51,19.90
2009,07,30,02,52,19.90
2009,07,30,02,53,19.90
2009,07,30,02,54,19.90
2009,07,30,02,55,19.90
2009,07,30,02,56,19.90
2009,07,30,02,57,19.90
2009,07,30,02,58,19.90
2009,07,30,02,59,19.90
2009,07,30,03,00,19.90
2009,07,30,03,01,19.90
2009,07,30,03,02,19.90
2009,07,30,03,03,19.90
2009,07,30,03,04,19.90
2009,07,30,03,05,20.00
2009,07,30,03,06,20.10
2009,07,30,03,07,20.10
2009,07,30,03,08,20.10
2009,07,30,03,09,20.10
2009,07,30,03,10,20.10
2009,07,30,03,11,20.20
2009,07,30,03,12,20.20
2009,07,30,03,13,20.20
2009,07,30,03,14,20.20
2009,07,30,03,15,20.20
2009,07,30,03,16,20.20
2009,07,30,03,17,20.20
2009,07,30,03,18,20.20
2009,07,30,03,19,20.20
2009,07,30,03,20,20.20
2009,07,30,03,21,20.20
2009,07,30,03,22,20.20
2009,07,30,03,23,20.20
2009,07,30,03,24,20.20
2009,07,30,03,25,20.20
2009,07,30,03,26,20.20
2009,07,30,03,27,20.20
2009,07,30,03,28,20.20
2009,07,30,03,29,20.20
2009,07,30,03,30,20.20
2009,07,30,03,31,20.20
2009,07,30,03,32,20.20
2009,07,30,03,33,20.20
2009,07,30,03,34,20.20
2009,07,30,03,35,20.20
2009,07,30,03,36,20.20
2009,07,30,03,37,20.10
2009,07,30,03,38,20.10
2009,07,30,03,39,19.90
2009,07,30,03,40,19.90
2009,07,30,03,41,19.90
2009,07,30,03,42,19.90
2009,07,30,03,43,19.80
2009,07,30,03,44,19.80
2009,07,30,03,45,19.80
2009,07,30,03,46,19.80
2009,07,30,03,47,19.80
2009,07,30,03,48,19.80
2009,07,30,03,49,19.80
2009,07,30,03,50,19.80
2009,07,30,03,51,19.70
2009,07,30,03,52,19.70
2009,07,30,03,53,19.70
2009,07,30,03,54,19.70
2009,07,30,03,55,19.70
2009,07,30,03,56,19.70
2009,07,30,03,57,19.70
2009,07,30,03,58,19.70
2009,07,30,03,59,19.70
2009,07,30,04,00,19.70
2009,07,30,04,01,19.70
2009,07,30,04,02,19.70
2009,07,30,04,03,19.70
2009,07,30,04,04,19.70
2009,07,30,04,05,19.70
2009,07,30,04,06,19.70
2009,07,30,04,07,19.70
2009,07,30,04,08,19.70
2009,07,30,04,09,19.70
2009,07,30,04,10,19.70
2009,07,30,04,11,19.70
2009,07,30,04,12,19.70
2009,07,30,04,13,19.70
2009,07,30,04,14,19.80
2009,07,30,04,15,19.80
2009,07,30,04,16,19.80
2009,07,30,04,17,19.80
2009,07,30,04,18,19.80
2009,07,30,04,19,19.80
2009,07,30,04,20,19.80
2009,07,30,04,21,19.80
2009,07,30,04,22,19.80
2009,07,30,04,23,19.80
2009,07,30,04,24,19.70
2009,07,30,04,25,19.70
2009,07,30,04,26,19.70
2009,07,30,04,27,19.70
2009,07,30,04,28,19.60
2009,07,30,04,29,19.60
2009,07,30,04,30,19.60
2009,07,30,04,31,19.60
2009,07,30,04,32,19.60
2009,07,30,04,33,19.50
2009,07,30,04,34,19.50
2009,07,30,04,35,19.50
2009,07,30,04,36,19.40
2009,07,30,04,37,19.40
2009,07,30,04,38,19.40
2009,07,30,04,39,19.40
2009,07,30,04,40,19.30
2009,07,30,04,41,19.30
2009,07,30,04,42,19.30
2009,07,30,04,43,19.30
2009,07,30,04,44,19.30
2009,07,30,04,45,19.30
2009,07,30,04,46,19.30
2009,07,30,04,47,19.30
2009,07,30,04,48,19.30
2009,07,30,04,49,19.30
2009,07,30,04,50,19.30
2009,07,30,04,51,19.30
2009,07,30,04,52,19.30
2009,07,30,04,53,19.30
2009,07,30,04,54,19.30
2009,07,30,04,55,19.40
2009,07,30,04,56,19.40
2009,07,30,04,57,19.40
2009,07,30,04,58,19.40
2009,07,30,04,59,19.40
2009,07,30,05,00,19.40
2009,07,30,05,01,19.40
2009,07,30,05,02,19.40
2009,07,30,05,03,19.40
2009,07,30,05,04,19.40
2009,07,30,05,05,19.40
2009,07,30,05,06,19.40
2009,07,30,05,07,19.40
2009,07,30,05,08,19.40
2009,07,30,05,09,19.40
2009,07,30,05,10,19.40
2009,07,30,05,11,19.30
2009,07,30,05,12,19.30
2009,07,30,05,13,19.30
2009,07,30,05,14,19.30
2009,07,30,05,15,19.30
2009,07,30,05,16,19.30
2009,07,30,05,17,19.30
2009,07,30,05,18,19.30
2009,07,30,05,19,19.30
2009,07,30,05,20,19.30
2009,07,30,05,21,19.30
2009,07,30,05,22,19.30
2009,07,30,05,23,19.30
2009,07,30,05,24,19.30
2009,07,30,05,25,19.30
2009,07,30,05,26,19.30
2009,07,30,05,27,19.30
2009,07,30,05,28,19.30
2009,07,30,05,29,19.30
2009,07,30,05,30,19.30
2009,07,30,05,31,19.30
2009,07,30,05,32,19.30
2009,07,30,05,33,19.30
2009,07,30,05,34,19.30
2009,07,30,05,35,19.30
2009,07,30,05,36,19.30
2009,07,30,05,37,19.30
2009,07,30,05,38,19.30
2009,07,30,05,39,19.30
2009,07,30,05,40,19.30
2009,07,30,05,41,19.30
2009,07,30,05,42,19.30
2009,07,30,05,43,19.30
2009,07,30,05,44,19.20
2009,07,30,05,45,19.20
2009,07,30,05,46,19.20
2009,07,30,05,47,19.30
2009,07,30,05,48,19.30
2009,07,30,05,49,19.30
2009,07,30,05,50,19.30
2009,07,30,05,51,19.30
2009,07,30,05,52,19.30
2009,07,30,05,53,19.30
2009,07,30,05,54,19.30
2009,07,30,05,55,19.30
2009,07,30,05,56,19.30
2009,07,30,05,57,19.40
2009,07,30,05,58,19.40
2009,07,30,05,59,19.40
2009,07,30,06,00,19.40
2009,07,30,06,01,19.40
2009,07,30,06,02,19.40
2009,07,30,06,03,19.40
2009,07,30,06,04,19.40
2009,07,30,06,05,19.40
2009,07,30,06,06,19.40
2009,07,30,06,07,19.40
2009,07,30,06,08,19.40
2009,07,30,06,09,19.40
2009,07,30,06,10,19.40
2009,07,30,06,11,19.40
2009,07,30,06,12,19.40
2009,07,30,06,13,19.40
2009,07,30,06,14,19.40
2009,07,30,06,15,19.30
2009,07,30,06,16,19.30
2009,07,30,06,17,19.30
2009,07,30,06,18,19.30
2009,07,30,06,19,19.20
2009,07,30,06,20,19.20
2009,07,30,06,21,19.20
2009,07,30,06,22,19.20
2009,07,30,06,23,19.30
2009,07,30,06,24,19.30
2009,07,30,06,25,19.20
2009,07,30,06,26,19.20
2009,07,30,06,27,19.20
2009,07,30,06,28,19.20
2009,07,30,06,29,19.10
2009,07,30,06,30,19.10
2009,07,30,06,31,19.10
2009,07,30,06,32,19.10
2009,07,30,06,33,19.10
2009,07,30,06,34,19.10
2009,07,30,06,35,19.10
2009,07,30,06,36,19.10
2009,07,30,06,37,19.10
2009,07,30,06,38,19.10
2009,07,30,06,39,19.10
2009,07,30,06,40,19.10
2009,07,30,06,41,19.10
2009,07,30,06,42,19.20
2009,07,30,06,43,19.20
2009,07,30,06,44,19.20
2009,07,30,06,45,19.20
2009,07,30,06,46,19.20
2009,07,30,06,47,19.20
2009,07,30,06,48,19.20
2009,07,30,06,49,19.20
2009,07,30,06,50,19.20
2009,07,30,06,51,19.20
2009,07,30,06,52,19.20
2009,07,30,06,53,19.30
2009,07,30,06,54,19.30
2009,07,30,06,55,19.30
2009,07,30,06,56,19.30
2009,07,30,06,57,19.30
2009,07,30,06,58,19.30
2009,07,30,06,59,19.30
2009,07,30,07,00,19.30
2009,07,30,07,01,19.30
2009,07,30,07,02,19.40
2009,07,30,07,03,19.40
2009,07,30,07,04,19.40
2009,07,30,07,05,19.40
2009,07,30,07,06,19.40
2009,07,30,07,07,19.40
2009,07,30,07,08,19.50
2009,07,30,07,09,19.50
2009,07,30,07,10,19.50
2009,07,30,07,11,19.50
2009,07,30,07,12,19.50
2009,07,30,07,13,19.60
2009,07,30,07,14,19.60
2009,07,30,07,15,19.60
2009,07,30,07,16,19.60
2009,07,30,07,17,19.60
2009,07,30,07,18,19.60
2009,07,30,07,19,19.70
2009,07,30,07,20,19.70
2009,07,30,07,21,19.70
2009,07,30,07,22,19.80
2009,07,30,07,23,19.80
2009,07,30,07,24,19.80
2009,07,30,07,25,19.80
2009,07,30,07,26,19.80
2009,07,30,07,27,19.80
2009,07,30,07,28,19.90
2009,07,30,07,29,19.90
2009,07,30,07,30,19.90
2009,07,30,07,31,19.90
2009,07,30,07,32,19.90
2009,07,30,07,33,19.90
2009,07,30,07,34,19.90
2009,07,30,07,35,19.90
2009,07,30,07,36,20.00
2009,07,30,07,37,20.10
2009,07,30,07,38,20.10
2009,07,30,07,39,20.20
2009,07,30,07,40,20.20
2009,07,30,07,41,20.20
2009,07,30,07,42,20.30
2009,07,30,07,43,20.40
2009,07,30,07,44,20.40
2009,07,30,07,45,20.50
2009,07,30,07,46,20.50
2009,07,30,07,47,20.60
2009,07,30,07,48,20.60
2009,07,30,07,49,20.70
2009,07,30,07,50,20.80
2009,07,30,07,51,20.80
2009,07,30,07,52,20.90
2009,07,30,07,53,21.00
2009,07,30,07,54,21.00
2009,07,30,07,55,21.10
2009,07,30,07,56,21.20
2009,07,30,07,57,21.30
2009,07,30,07,58,21.30
2009,07,30,07,59,21.40
2009,07,30,08,00,21.50
2009,07,30,08,01,21.60
2009,07,30,08,02,21.70
2009,07,30,08,03,21.70
2009,07,30,08,04,21.80
2009,07,30,08,05,21.90
2009,07,30,08,06,22.00
2009,07,30,08,07,22.10
2009,07,30,08,08,22.10
2009,07,30,08,09,22.20
2009,07,30,08,10,22.30
2009,07,30,08,11,22.30
2009,07,30,08,12,22.40
2009,07,30,08,13,22.40
2009,07,30,08,14,22.40
2009,07,30,08,15,22.30
2009,07,30,08,16,22.20
2009,07,30,08,17,22.10
2009,07,30,08,18,22.00
2009,07,30,08,19,21.90
2009,07,30,08,20,21.80
2009,07,30,08,21,21.80
2009,07,30,08,22,21.70
2009,07,30,08,23,21.60
2009,07,30,08,24,21.60
2009,07,30,08,25,21.60
2009,07,30,08,26,21.60
2009,07,30,08,27,21.60
2009,07,30,08,28,21.60
2009,07,30,08,29,21.60
2009,07,30,08,30,21.70
2009,07,30,08,31,21.70
2009,07,30,08,32,21.80
2009,07,30,08,33,21.90
2009,07,30,08,34,22.00
2009,07,30,08,35,22.10
2009,07,30,08,36,22.10
2009,07,30,08,37,22.20
2009,07,30,08,38,22.30
2009,07,30,08,39,22.30
2009,07,30,08,40,22.40
2009,07,30,08,41,22.40
2009,07,30,08,42,22.50
2009,07,30,08,43,22.60
2009,07,30,08,44,22.60
2009,07,30,08,45,22.70
2009,07,30,08,46,22.80
2009,07,30,08,47,22.80
2009,07,30,08,48,22.90
2009,07,30,08,49,22.90
2009,07,30,08,50,22.90
2009,07,30,08,51,23.00
2009,07,30,08,52,23.10
2009,07,30,08,53,23.10
2009,07,30,08,54,23.10
2009,07,30,08,55,23.00
2009,07,30,08,56,22.90
2009,07,30,08,57,22.90
2009,07,30,08,58,22.90
2009,07,30,08,59,22.90
2009,07,30,09,00,22.90
2009,07,30,09,01,22.90
2009,07,30,09,02,22.90
2009,07,30,09,03,22.90
2009,07,30,09,04,22.90
2009,07,30,09,05,22.90
2009,07,30,09,06,22.80
2009,07,30,09,07,22.80
2009,07,30,09,08,22.80
2009,07,30,09,09,22.70
2009,07,30,09,10,22.70
2009,07,30,09,11,22.70
2009,07,30,09,12,22.70
2009,07,30,09,13,22.70
2009,07,30,09,14,22.80
2009,07,30,09,15,22.90
2009,07,30,09,16,23.00
2009,07,30,09,17,23.10
2009,07,30,09,18,23.10
2009,07,30,09,19,23.20
2009,07,30,09,20,23.30
2009,07,30,09,21,23.30
2009,07,30,09,22,23.40
2009,07,30,09,23,23.60
2009,07,30,09,24,23.70
2009,07,30,09,25,23.80
2009,07,30,09,26,23.90
2009,07,30,09,27,24.00
2009,07,30,09,28,24.10
2009,07,30,09,29,24.10
2009,07,30,09,30,24.10
2009,07,30,09,31,24.20
2009,07,30,09,32,24.20
2009,07,30,09,33,24.20
2009,07,30,09,34,24.20
2009,07,30,09,35,24.10
2009,07,30,09,36,24.10
2009,07,30,09,37,24.10
2009,07,30,09,38,24.10
2009,07,30,09,39,24.10
2009,07,30,09,40,24.10
2009,07,30,09,41,24.20
2009,07,30,09,42,24.20
2009,07,30,09,43,24.20
2009,07,30,09,44,24.20
2009,07,30,09,45,24.20
2009,07,30,09,46,24.20
2009,07,30,09,47,24.20
2009,07,30,09,48,24.20
2009,07,30,09,49,24.20
2009,07,30,09,50,24.10
2009,07,30,09,51,23.90
2009,07,30,09,52,23.70
2009,07,30,09,53,23.60
2009,07,30,09,54,23.40
2009,07,30,09,55,23.30
2009,07,30,09,56,23.10
2009,07,30,09,57,22.90
2009,07,30,09,58,22.70
2009,07,30,09,59,22.40
2009,07,30,10,00,22.20
2009,07,30,10,01,22.00
2009,07,30,10,02,22.00
2009,07,30,10,03,22.00
2009,07,30,10,04,22.00
2009,07,30,10,05,21.90
2009,07,30,10,06,21.70
2009,07,30,10,07,21.60
2009,07,30,10,08,21.60
2009,07,30,10,09,21.50
2009,07,30,10,10,21.30
2009,07,30,10,11,21.30
2009,07,30,10,12,21.30
2009,07,30,10,13,21.40
2009,07,30,10,14,21.40
2009,07,30,10,15,21.50
2009,07,30,10,16,21.60
2009,07,30,10,17,21.70
2009,07,30,10,18,21.90
2009,07,30,10,19,22.10
2009,07,30,10,20,22.20
2009,07,30,10,21,22.40
2009,07,30,10,22,22.60
2009,07,30,10,23,22.70
2009,07,30,10,24,22.90
2009,07,30,10,25,23.00
2009,07,30,10,26,23.10
2009,07,30,10,27,23.20
2009,07,30,10,28,23.20
2009,07,30,10,29,23.10
2009,07,30,10,30,23.00
2009,07,30,10,31,22.90
2009,07,30,10,32,22.80
2009,07,30,10,33,22.70
2009,07,30,10,34,22.90
2009,07,30,10,35,22.90
2009,07,30,10,36,23.10
2009,07,30,10,37,23.20
2009,07,30,10,38,23.30
2009,07,30,10,39,23.30
2009,07,30,10,40,23.40
2009,07,30,10,41,23.50
2009,07,30,10,42,23.60
2009,07,30,10,43,23.70
2009,07,30,10,44,23.80
2009,07,30,10,45,23.90
2009,07,30,10,46,24.00
2009,07,30,10,47,24.10
2009,07,30,10,48,24.10
2009,07,30,10,49,24.20
2009,07,30,10,50,24.30
2009,07,30,10,51,24.40
2009,07,30,10,52,24.50
2009,07,30,10,53,24.60
2009,07,30,10,54,24.60
2009,07,30,10,55,24.60
2009,07,30,10,56,24.60
2009,07,30,10,57,24.50
2009,07,30,10,58,24.60
2009,07,30,10,59,24.60
2009,07,30,11,00,24.70
2009,07,30,11,01,24.70
2009,07,30,11,02,24.70
2009,07,30,11,03,24.70
2009,07,30,11,04,24.80
2009,07,30,11,05,24.90
2009,07,30,11,06,25.00
2009,07,30,11,07,25.10
2009,07,30,11,08,25.10
2009,07,30,11,09,25.00
2009,07,30,11,10,25.00
2009,07,30,11,11,24.90
2009,07,30,11,12,25.00
2009,07,30,11,13,25.00
2009,07,30,11,14,24.90
2009,07,30,11,15,25.00
2009,07,30,11,16,25.00
2009,07,30,11,17,25.00
2009,07,30,11,18,25.00
2009,07,30,11,19,25.00
2009,07,30,11,20,24.90
2009,07,30,11,21,24.90
2009,07,30,11,22,25.00
2009,07,30,11,23,25.10
2009,07,30,11,24,25.20
2009,07,30,11,25,25.30
2009,07,30,11,26,25.20
2009,07,30,11,27,25.00
2009,07,30,11,28,24.80
2009,07,30,11,29,24.70
2009,07,30,11,30,24.50
2009,07,30,11,31,24.40
2009,07,30,11,32,24.30
2009,07,30,11,33,24.20
2009,07,30,11,34,24.10
2009,07,30,11,35,24.10
2009,07,30,11,36,24.10
2009,07,30,11,37,24.10
2009,07,30,11,38,24.10
2009,07,30,11,39,24.00
2009,07,30,11,40,23.90
2009,07,30,11,41,23.90
2009,07,30,11,42,24.10
2009,07,30,11,43,24.10
2009,07,30,11,44,24.20
2009,07,30,11,45,24.20
2009,07,30,11,46,24.30
2009,07,30,11,47,24.30
2009,07,30,11,48,24.40
2009,07,30,11,49,24.40
2009,07,30,11,50,24.40
2009,07,30,11,51,24.50
2009,07,30,11,52,24.50
2009,07,30,11,53,24.60
2009,07,30,11,54,24.60
2009,07,30,11,55,24.70
2009,07,30,11,56,24.80
2009,07,30,11,57,24.90
2009,07,30,11,58,24.90
2009,07,30,11,59,24.90
2009,07,30,12,00,24.90
2009,07,30,12,01,24.80
2009,07,30,12,02,24.70
2009,07,30,12,03,24.70
2009,07,30,12,04,24.70
2009,07,30,12,05,24.70
2009,07,30,12,06,24.70
2009,07,30,12,07,24.60
2009,07,30,12,08,24.50
2009,07,30,12,09,24.50
2009,07,30,12,10,24.60
2009,07,30,12,11,24.70
2009,07,30,12,12,24.80
2009,07,30,12,13,24.70
2009,07,30,12,14,24.70
2009,07,30,12,15,24.80
2009,07,30,12,16,24.80
2009,07,30,12,17,24.90
2009,07,30,12,18,25.00
2009,07,30,12,19,25.20
2009,07,30,12,20,25.30
2009,07,30,12,21,25.50
2009,07,30,12,22,25.50
2009,07,30,12,23,25.50
2009,07,30,12,24,25.40
2009,07,30,12,25,25.40
2009,07,30,12,26,25.20
2009,07,30,12,27,25.30
2009,07,30,12,28,25.20
2009,07,30,12,29,25.00
2009,07,30,12,30,24.90
2009,07,30,12,31,24.80
2009,07,30,12,32,24.80
2009,07,30,12,33,24.90
2009,07,30,12,34,25.00
2009,07,30,12,35,25.20
2009,07,30,12,36,25.40
2009,07,30,12,37,25.50
2009,07,30,12,38,25.50
2009,07,30,12,39,25.50
2009,07,30,12,40,25.50
2009,07,30,12,41,25.40
2009,07,30,12,42,25.40
2009,07,30,12,43,25.50
2009,07,30,12,44,25.50
2009,07,30,12,45,25.50
2009,07,30,12,46,25.40
2009,07,30,12,47,25.30
2009,07,30,12,48,25.40
2009,07,30,12,49,25.50
2009,07,30,12,50,25.50
2009,07,30,12,51,25.50
2009,07,30,12,52,25.50
2009,07,30,12,53,25.50
2009,07,30,12,54,25.40
2009,07,30,12,55,25.40
2009,07,30,12,56,25.40
2009,07,30,12,57,25.50
2009,07,30,12,58,25.40
2009,07,30,12,59,25.20
2009,07,30,13,00,25.10
2009,07,30,13,01,25.10
2009,07,30,13,02,25.20
2009,07,30,13,03,25.30
2009,07,30,13,04,25.40
2009,07,30,13,05,25.40
2009,07,30,13,06,25.50
2009,07,30,13,07,25.60
2009,07,30,13,08,25.60
2009,07,30,13,09,25.80
2009,07,30,13,10,25.90
2009,07,30,13,11,25.90
2009,07,30,13,12,26.00
2009,07,30,13,13,26.10
2009,07,30,13,14,26.20
2009,07,30,13,15,26.20
2009,07,30,13,16,26.20
2009,07,30,13,17,26.30
2009,07,30,13,18,26.20
2009,07,30,13,19,26.10
2009,07,30,13,20,26.10
2009,07,30,13,21,26.10
2009,07,30,13,22,26.00
2009,07,30,13,23,26.00
2009,07,30,13,24,26.00
2009,07,30,13,25,25.90
2009,07,30,13,26,25.90
2009,07,30,13,27,26.00
2009,07,30,13,28,26.10
2009,07,30,13,29,26.20
2009,07,30,13,30,26.20
2009,07,30,13,31,26.30
2009,07,30,13,32,26.40
2009,07,30,13,33,26.40
2009,07,30,13,34,26.40
2009,07,30,13,35,26.40
2009,07,30,13,36,26.40
2009,07,30,13,37,26.50
2009,07,30,13,38,26.50
2009,07,30,13,39,26.40
2009,07,30,13,40,26.40
2009,07,30,13,41,26.30
2009,07,30,13,42,26.30
2009,07,30,13,43,26.40
2009,07,30,13,44,26.40
2009,07,30,13,45,26.50
2009,07,30,13,46,26.60
2009,07,30,13,47,26.60
2009,07,30,13,48,26.70
2009,07,30,13,49,26.80
2009,07,30,13,50,26.80
2009,07,30,13,51,26.80
2009,07,30,13,52,26.60
2009,07,30,13,53,26.60
2009,07,30,13,54,26.50
2009,07,30,13,55,26.40
2009,07,30,13,56,26.50
2009,07,30,13,57,26.60
2009,07,30,13,58,26.60
2009,07,30,13,59,26.70
2009,07,30,14,00,26.80
2009,07,30,14,01,26.80
2009,07,30,14,02,26.70
2009,07,30,14,03,26.60
2009,07,30,14,04,26.60
2009,07,30,14,05,26.50
2009,07,30,14,06,26.40
2009,07,30,14,07,26.30
2009,07,30,14,08,26.30
2009,07,30,14,09,26.00
2009,07,30,14,10,25.80
2009,07,30,14,11,25.70
2009,07,30,14,12,25.60
2009,07,30,14,13,25.50
2009,07,30,14,14,25.50
2009,07,30,14,15,25.50
2009,07,30,14,16,25.50
2009,07,30,14,17,25.50
2009,07,30,14,18,25.50
2009,07,30,14,19,25.50
2009,07,30,14,20,25.50
2009,07,30,14,21,25.70
2009,07,30,14,22,25.70
2009,07,30,14,23,25.70
2009,07,30,14,24,25.60
2009,07,30,14,25,25.60
2009,07,30,14,26,25.50
2009,07,30,14,27,25.50
2009,07,30,14,28,25.50
2009,07,30,14,29,25.50
2009,07,30,14,30,25.40
2009,07,30,14,31,25.40
2009,07,30,14,32,25.40
2009,07,30,14,33,25.30
2009,07,30,14,34,25.30
2009,07,30,14,35,25.40
2009,07,30,14,36,25.50
2009,07,30,14,37,25.70
2009,07,30,14,38,25.70
2009,07,30,14,39,25.80
2009,07,30,14,40,25.80
2009,07,30,14,41,25.80
2009,07,30,14,42,25.70
2009,07,30,14,43,25.70
2009,07,30,14,44,25.70
2009,07,30,14,45,25.70
2009,07,30,14,46,25.80
2009,07,30,14,47,25.90
2009,07,30,14,48,25.70
2009,07,30,14,49,25.80
2009,07,30,14,50,25.80
2009,07,30,14,51,25.90
2009,07,30,14,52,26.00
2009,07,30,14,53,26.20
2009,07,30,14,54,26.40
2009,07,30,14,55,26.50
2009,07,30,14,56,26.60
2009,07,30,14,57,26.70
2009,07,30,14,58,26.70
2009,07,30,14,59,26.70
2009,07,30,15,00,26.70
2009,07,30,15,01,26.70
2009,07,30,15,02,26.70
2009,07,30,15,03,26.80
2009,07,30,15,04,26.70
2009,07,30,15,05,26.60
2009,07,30,15,06,26.60
2009,07,30,15,07,26.70
2009,07,30,15,08,26.70
2009,07,30,15,09,26.80
2009,07,30,15,10,26.80
2009,07,30,15,11,26.80
2009,07,30,15,12,26.80
2009,07,30,15,13,26.90
2009,07,30,15,14,27.00
2009,07,30,15,15,27.10
2009,07,30,15,16,27.00
2009,07,30,15,17,26.90
2009,07,30,15,18,26.90
2009,07,30,15,19,26.80
2009,07,30,15,20,26.70
2009,07,30,15,21,26.70
2009,07,30,15,22,26.70
2009,07,30,15,23,26.80
2009,07,30,15,24,27.00
2009,07,30,15,25,27.20
2009,07,30,15,26,27.30
2009,07,30,15,27,27.50
2009,07,30,15,28,27.70
2009,07,30,15,29,27.80
2009,07,30,15,30,28.00
2009,07,30,15,31,28.20
2009,07,30,15,32,28.30
2009,07,30,15,33,28.20
2009,07,30,15,34,28.30
2009,07,30,15,35,28.30
2009,07,30,15,36,28.30
2009,07,30,15,37,28.30
2009,07,30,15,38,28.40
2009,07,30,15,39,28.50
2009,07,30,15,40,28.60
2009,07,30,15,41,28.40
2009,07,30,15,42,28.30
2009,07,30,15,43,28.00
2009,07,30,15,44,27.80
2009,07,30,15,45,27.70
2009,07,30,15,46,27.70
2009,07,30,15,47,27.60
2009,07,30,15,48,27.40
2009,07,30,15,49,27.30
2009,07,30,15,50,27.30
2009,07,30,15,51,27.30
2009,07,30,15,52,27.30
2009,07,30,15,53,27.30
2009,07,30,15,54,27.40
2009,07,30,15,55,27.40
2009,07,30,15,56,27.40
2009,07,30,15,57,27.40
2009,07,30,15,58,27.30
2009,07,30,15,59,27.30
2009,07,30,16,00,27.30
2009,07,30,16,01,27.30
2009,07,30,16,02,27.40
2009,07,30,16,03,27.40
2009,07,30,16,04,27.60
2009,07,30,16,05,27.70
2009,07,30,16,06,27.90
2009,07,30,16,07,28.00
2009,07,30,16,08,28.10
2009,07,30,16,09,28.10
2009,07,30,16,10,28.20
2009,07,30,16,11,28.30
2009,07,30,16,12,28.40
2009,07,30,16,13,28.50
2009,07,30,16,14,28.60
2009,07,30,16,15,28.60
2009,07,30,16,16,28.60
2009,07,30,16,17,28.70
2009,07,30,16,18,28.80
2009,07,30,16,19,29.00
2009,07,30,16,20,29.30
2009,07,30,16,21,29.50
2009,07,30,16,22,29.50
2009,07,30,16,23,29.70
2009,07,30,16,24,29.80
2009,07,30,16,25,29.80
2009,07,30,16,26,29.80
2009,07,30,16,27,29.70
2009,07,30,16,28,29.70
2009,07,30,16,29,29.60
2009,07,30,16,30,29.70
2009,07,30,16,31,29.70
2009,07,30,16,32,29.80
2009,07,30,16,33,29.80
2009,07,30,16,34,29.80
2009,07,30,16,35,29.80
2009,07,30,16,36,29.80
2009,07,30,16,37,29.90
2009,07,30,16,38,29.90
2009,07,30,16,39,29.80
2009,07,30,16,40,29.70
2009,07,30,16,41,29.60
2009,07,30,16,42,29.60
2009,07,30,16,43,29.70
2009,07,30,16,44,29.70
2009,07,30,16,45,29.80
2009,07,30,16,46,29.80
2009,07,30,16,47,29.80
2009,07,30,16,48,29.80
2009,07,30,16,49,29.70
2009,07,30,16,50,29.70
2009,07,30,16,51,29.60
2009,07,30,16,52,29.50
2009,07,30,16,53,29.20
2009,07,30,16,54,29.20
2009,07,30,16,55,29.10
2009,07,30,16,56,29.20
2009,07,30,16,57,29.10
2009,07,30,16,58,29.10
2009,07,30,16,59,29.10
2009,07,30,17,00,29.20
2009,07,30,17,01,29.20
2009,07,30,17,02,29.30
2009,07,30,17,03,29.30
2009,07,30,17,04,29.20
2009,07,30,17,05,29.20
2009,07,30,17,06,29.30
2009,07,30,17,07,29.30
2009,07,30,17,08,29.40
2009,07,30,17,09,29.50
2009,07,30,17,10,29.50
2009,07,30,17,11,29.50
2009,07,30,17,12,29.40
2009,07,30,17,13,29.30
2009,07,30,17,14,29.20
2009,07,30,17,15,29.20
2009,07,30,17,16,29.10
2009,07,30,17,17,29.00
2009,07,30,17,18,28.90
2009,07,30,17,19,28.90